BREEZE-M DEB (TANK), 41583

Orbit data source: Space-Track

BREEZE-M DEB (TANK), 41583 is space debris in HEO originally from a launch on Thu, 09 Jun 2016 UTC launched from the Tyuratam Missile And Space Complex (TTMTR). Debris objects in space refer to the collection of defunct objects orbiting the Earth. Examples of debris include non-operational satellites, rocket bodies, and fragments generated from explosions, collisions, or faulty payload assembly.

Loading next visibility...
BREEZE-M DEB (TANK) details
Identifier
41583, 2016-035C
Orbit
HEO
Last TLE update1 day ago
Origin
Flag of CISKhrunichev (CIS)
ManufacturerKhrunichev
MissionSpacecraft
Bus & MotorBRIZ TANK, Unknown motor
Mass~1,000 kg wet, 1,000 kg dry
Launch date (UTC)
2016-06-09 (9 years ago)
Launch vehicleUnknown
Launch site
Tyuratam Missile And Space Complex (TTMTR)
Object type
Payload
Rocket body
Debris
Shape & HBRTorus, 4 m
Radar Cross Section8.218 m², Large (>1 m²)

Expand to show TLE details & history

TLE from 1 day ago
0 BREEZE-M DEB (TANK)
1 41583U 16035C   24360.21464110  .00003813  00000-0  13092-2 0  9992
2 41583  50.8112  14.5350 5009970   2.3584 359.3678  5.54259924171892
Epoch: 2024-12-25T05:09Z
Definitive object data (Epoch: 2024-12-25T05:09:04.991Z)
Latitude0.00003°
Longitude-156.94485°
Altitude357.958 km
Speed9.424 km/s
True Right ascension00h 58m 09s
True Declination0° 00' 00"
Sunlit
Object was in daylight at TLE epoch
Visualization TLE readout
Latitude-32.86038°
Longitude53.76478°
Altitude9,856.183 km
Speed4.424 km/s
Apparent Right ascension16h 23m 57s
Apparent Declination-43° 28' 27"
Sunlit
Object is in daylight
Visualization observer readout
Local Sidereal Time09:46:05
Azimuth122.22° SE
Elevation-32.211°
Doppler factor1
Orbital elements
Apogee altitude13,867.075 km
Perigee altitude352.337 km
Semi-major axis13,487.843 km
Eccentricity0.500997
Inclination50.8112°
RAAN14.535°
Arg. of periapsis2.3584°
True anomaly357.80306°
Mean anomaly359.3678°
Eccentric anomaly358.73318°
Mean motion1.38557 °/min
BSTAR0.0013092
Orbital period259.82 mins
Loading maneuver chart data...
Loading historical data...
Loading historical data...
Loading historical data...
Loading historical data...
Loading historical data...
Loading historical data...
Loading historical data...
Other satellites on launch #35 in the year 2016 (2016-06-09 UTC)

BREEZE-M DEB (TANK) Visibility forecast

Observer location: undefined°, undefined

Span
Click to sort rows by Start time (UTC) header in descending order
Start Az.
Max El. time (UTC)
Max El. Az.
Max El.
End time (UTC)
End Az.
145 mins2024-12-26 11:53:54.616Z305.246° NW2024-12-26 12:26:54.616Z234.511° WSW42.643°2024-12-26 14:18:54.616Z174.04° S
29 mins2024-12-27 04:56:54.616Z255.244° W2024-12-27 05:01:54.616Z357.265° N43.048°2024-12-27 05:25:54.616Z61.484° ENE
57 mins2024-12-27 09:27:54.616Z303.822° NW2024-12-27 09:45:54.616Z33.065° NE44.597°2024-12-27 10:24:54.616Z121.477° SE
|